STARLINK-1714, 46562

Orbit data source: Space-Track

STARLINK-1714, 46562 is a payload satellite owned by SpaceX/Seattle (US) in LEO that was launched on Tue, 06 Oct 2020 UTC via an FALCON 9 launch vehicle from the Air Force Eastern Test Range (AFETR). Payload-class satellites include a variety of spacecraft equipped with specific instruments for various scientific and technological missions. These include communications satellites like Starlink; space stations such as the ISS; scientific satellites like the Hubble; Earth observation satellites from companies like Planet Labs, Umbra, and HawkEye 360; GPS; miniature CubeSats for education and research; and military/defense satellites.

Loading next visibility...
Identifier
46562, 2020-070AG
Orbit
LEO
Country
Flag of USUS
Related business
Manufacturer
SpaceX/Seattle
Mission
Partially operational Commercial Communications
Bus & Motor
STARLINK, Unknown motor
Mass
260 kg wet, ~248 kg dry
Launch date (UTC)
2020-10-06 (5 years ago)
Launch vehicle
FALCON 9
Launch site
Air Force Eastern Test Range (AFETR)
Object type
Payload
Rocket body
Debris
Shape & HBR
Box + 1 Pan, 10.1 m
Radar Cross Section
13.562 m², Large (>1 m²)

Expand to show TLE details & history
Last TLE update: 18 hours ago

TLE from 18 hours ago
0 STARLINK-1714
1 46562U 20070AG  25353.79673738  .00069183  00000-0  20067-2 0  9994
2 46562  53.0526 135.4950 0004142 166.9745 193.1364 15.34909790288026
Epoch: 2025-12-19T19:07Z
TLE epoch observation values (Epoch: 2025-12-19T19:07:18.109Z)
Latitude
-0.00004°
Longitude
120.03677°
Altitude
464.837 km
Speed
7.634 km/s
True Right ascension
09h 01m 58s
True Declination
0° 00' 00"
Sunlit
Object was in full shadow at epoch
Visualization orbit readout
Latitude
Unknown
Longitude
Unknown
Altitude
Unknown
Speed
Unknown
Apparent Right ascension
Unknown
Apparent Declination
Unknown
Sunlit
N/A
Visualization observer readout
Local Sidereal Time
11:35:29
Azimuth
Unknown
Elevation
Unknown
Doppler factor
Unknown
Orbital elements
Apogee altitude
464.296 km
Perigee altitude
458.63 km
Semi-major axis
6,839.6 km
Eccentricity
0.00041
Inclination
53.0526°
RAAN
135.495°
Arg. of periapsis
166.9745°
True anomaly
193.12562°
Mean anomaly
193.1364°
Eccentric anomaly
193.13101°
Mean motion
3.83705 °/min
Orbital period
93.82 mins
BSTAR
0.0020067
Loading maneuver chart data...
Computing Atmospheric mass density...

Documentation

Showing up to 5 results
|